Regional Weather Roundup
Issued by NWS

Home | Current Version | Previous Version | Text Only | Print | Product List | Glossary Off
Versions: 1 2 3 4 5 6 7 8 9 10 11 12 13 14 15 16 17 18 19 20 21 22 23 24 25 26 27 28 29 30 31 32 33 34 35 36 37 38 39 40 41 42 43 44 45 46 47 48 49 50

750
ASUS45 KCYS 230510
RWRWY

WYOMING REGIONAL WEATHER ROUNDUP
NATIONAL WEATHER SERVICE CHEYENNE WY
1100 PM MDT TUE AUG 22 2017

NOTE:  "FAIR" INDICATES FEW OR NO CLOUDS BELOW 12,000 FEET
WITH NO SIGNIFICANT WEATHER AND/OR OBSTRUCTIONS TO VISIBILITY.

WYZ001-230600-
YELLOWSTONE NATIONAL PARK

CITY           SKY/WX    TMP DP  RH WIND       PRES   REMARKS
LK YELLOWSTONE   N/A     44  31  60 CALM      30.41R
W YELLOWSTONE  NOT AVBL

$$
WYZ002>013-054>058-071-098>099-230600-
NORTHERN WYOMING

CITY           SKY/WX    TMP DP  RH WIND       PRES   REMARKS
JACKSON        FAIR      51  33  50 N9        30.29S
CODY           FAIR      61  34  36 S6        30.19R
GREYBULL       FAIR      71  36  27 SE5       30.07R
WORLAND        FAIR      66  39  37 CALM      30.09S
SHERIDAN       FAIR      59  43  55 CALM      30.11S
BUFFALO        FAIR      66  35  31 W8        30.19S
GILLETTE       FAIR      56  34  43 SW6       30.13S
HULETT         FAIR      64  41  42 W3        30.14F
NEWCASTLE      FAIR      70  45  40 E10       30.15S

$$
WYZ014>020-022>026-101>103-230600-
CENTRAL WYOMING

CITY           SKY/WX    TMP DP  RH WIND       PRES   REMARKS
BIG PINEY      FAIR      59  28  30 N13       30.33S
PINEDALE       FAIR      50  32  50 NW7       30.34S
DUBOIS         FAIR      59  25  27 NW5       30.34S
LANDER           N/A    N/A N/A N/A MISG      30.18S
RIVERTON       FAIR      70  29  21 NE6       30.19R
CASPER         FAIR      60  42  51 CALM      30.18R
DOUGLAS        FAIR      65  51  60 SE8       30.18R

$$
WYZ021-027>030-104>119-230600-
SOUTHERN WYOMING

CITY           SKY/WX    TMP DP  RH WIND       PRES   REMARKS
EVANSTON       MOCLDY    62  41  46 SW8       30.36S
KEMMERER         N/A    N/A N/A N/A W6        30.37S
FORT BRIDGER   FAIR      69  35  28 SW8       30.37S
ROCK SPRINGS   FAIR      69  36  29 W13       30.31R
DIXON          FAIR      60  35  38 CALM      30.34S
RAWLINS        NOT AVBL
SARATOGA       FAIR      61  36  39 SE9       30.33S
LARAMIE        FAIR      58  53  84 S9        30.33R
CHEYENNE       FAIR      61  53  75 NW7       30.26R
TORRINGTON     FAIR      66  52  60 E12       30.14R
PINE BLUFFS    FAIR      63  52  67 SW6       30.21R

$$




USA.gov is the U.S. government's official web portal to all federal, state and local government web resources and services.